Year,Month,Day,Hour,Minute,Value (Times are PST for barometer in hPa)
2013,06,24,00,00,1000.42
2013,06,24,00,01,1000.41
2013,06,24,00,02,1000.41
2013,06,24,00,03,1000.41
2013,06,24,00,04,1000.41
2013,06,24,00,05,1000.41
2013,06,24,00,06,1000.41
2013,06,24,00,07,1000.41
2013,06,24,00,08,1000.41
2013,06,24,00,09,1000.41
2013,06,24,00,10,1000.41
2013,06,24,00,11,1000.41
2013,06,24,00,12,1000.41
2013,06,24,00,13,1000.41
2013,06,24,00,14,1000.41
2013,06,24,00,15,1000.35
2013,06,24,00,16,1000.34
2013,06,24,00,17,1000.34
2013,06,24,00,18,1000.34
2013,06,24,00,19,1000.34
2013,06,24,00,20,1000.34
2013,06,24,00,21,1000.34
2013,06,24,00,22,1000.34
2013,06,24,00,23,1000.34
2013,06,24,00,24,1000.34
2013,06,24,00,25,1000.34
2013,06,24,00,26,1000.34
2013,06,24,00,27,1000.34
2013,06,24,00,28,1000.34
2013,06,24,00,29,1000.34
2013,06,24,00,30,1000.21
2013,06,24,00,31,1000.20
2013,06,24,00,32,1000.20
2013,06,24,00,33,1000.20
2013,06,24,00,34,1000.20
2013,06,24,00,35,1000.20
2013,06,24,00,36,1000.20
2013,06,24,00,37,1000.20
2013,06,24,00,38,1000.20
2013,06,24,00,39,1000.20
2013,06,24,00,40,1000.20
2013,06,24,00,41,1000.20
2013,06,24,00,42,1000.20
2013,06,24,00,43,1000.20
2013,06,24,00,44,1000.20
2013,06,24,00,45,999.98
2013,06,24,00,46,999.97
2013,06,24,00,47,999.97
2013,06,24,00,48,999.97
2013,06,24,00,49,999.97
2013,06,24,00,50,999.97
2013,06,24,00,51,999.97
2013,06,24,00,52,999.97
2013,06,24,00,53,999.97
2013,06,24,00,54,999.97
2013,06,24,00,55,999.97
2013,06,24,00,56,999.97
2013,06,24,00,57,999.97
2013,06,24,00,58,999.97
2013,06,24,00,59,999.97
2013,06,24,01,00,999.91
2013,06,24,01,01,999.90
2013,06,24,01,02,999.90
2013,06,24,01,03,999.90
2013,06,24,01,04,999.90
2013,06,24,01,05,999.90
2013,06,24,01,06,999.90
2013,06,24,01,07,999.90
2013,06,24,01,08,999.90
2013,06,24,01,09,999.90
2013,06,24,01,10,999.90
2013,06,24,01,11,999.90
2013,06,24,01,12,999.90
2013,06,24,01,13,999.90
2013,06,24,01,14,999.90
2013,06,24,01,15,999.87
2013,06,24,01,16,999.87
2013,06,24,01,17,999.87
2013,06,24,01,18,999.87
2013,06,24,01,19,999.87
2013,06,24,01,20,999.87
2013,06,24,01,21,999.87
2013,06,24,01,22,999.87
2013,06,24,01,23,999.87
2013,06,24,01,24,999.87
2013,06,24,01,25,999.87
2013,06,24,01,26,999.87
2013,06,24,01,27,999.87
2013,06,24,01,28,999.87
2013,06,24,01,29,999.87
2013,06,24,01,30,999.83
2013,06,24,01,31,999.83
2013,06,24,01,32,999.83
2013,06,24,01,33,999.83
2013,06,24,01,34,999.83
2013,06,24,01,35,999.83
2013,06,24,01,36,999.83
2013,06,24,01,37,999.83
2013,06,24,01,38,999.83
2013,06,24,01,39,999.83
2013,06,24,01,40,999.83
2013,06,24,01,41,999.83
2013,06,24,01,42,999.83
2013,06,24,01,43,999.83
2013,06,24,01,44,999.83
2013,06,24,01,45,999.76
2013,06,24,01,46,999.76
2013,06,24,01,47,999.76
2013,06,24,01,48,999.76
2013,06,24,01,49,999.76
2013,06,24,01,50,999.76
2013,06,24,01,51,999.76
2013,06,24,01,52,999.76
2013,06,24,01,53,999.76
2013,06,24,01,54,999.76
2013,06,24,01,55,999.76
2013,06,24,01,56,999.76
2013,06,24,01,57,999.76
2013,06,24,01,58,999.76
2013,06,24,01,59,999.76
2013,06,24,02,00,999.54
2013,06,24,02,01,999.53
2013,06,24,02,02,999.53
2013,06,24,02,03,999.53
2013,06,24,02,04,999.53
2013,06,24,02,05,999.53
2013,06,24,02,06,999.53
2013,06,24,02,07,999.53
2013,06,24,02,08,999.53
2013,06,24,02,09,999.53
2013,06,24,02,10,999.53
2013,06,24,02,11,999.53
2013,06,24,02,12,999.53
2013,06,24,02,13,999.53
2013,06,24,02,14,999.53
2013,06,24,02,15,999.38
2013,06,24,02,16,999.36
2013,06,24,02,17,999.36
2013,06,24,02,18,999.36
2013,06,24,02,19,999.36
2013,06,24,02,20,999.36
2013,06,24,02,21,999.36
2013,06,24,02,22,999.36
2013,06,24,02,23,999.36
2013,06,24,02,24,999.36
2013,06,24,02,25,999.36
2013,06,24,02,26,999.36
2013,06,24,02,27,999.36
2013,06,24,02,28,999.36
2013,06,24,02,29,999.36
2013,06,24,02,30,999.30
2013,06,24,02,31,999.29
2013,06,24,02,32,999.29
2013,06,24,02,33,999.29
2013,06,24,02,34,999.29
2013,06,24,02,35,999.29
2013,06,24,02,36,999.29
2013,06,24,02,37,999.29
2013,06,24,02,38,999.29
2013,06,24,02,39,999.29
2013,06,24,02,40,999.29
2013,06,24,02,41,999.29
2013,06,24,02,42,999.29
2013,06,24,02,43,999.29
2013,06,24,02,44,999.29
2013,06,24,02,45,999.16
2013,06,24,02,46,999.15
2013,06,24,02,47,999.15
2013,06,24,02,48,999.15
2013,06,24,02,49,999.15
2013,06,24,02,50,999.15
2013,06,24,02,51,999.15
2013,06,24,02,52,999.15
2013,06,24,02,53,999.15
2013,06,24,02,54,999.15
2013,06,24,02,55,999.15
2013,06,24,02,56,999.15
2013,06,24,02,57,999.15
2013,06,24,02,58,999.15
2013,06,24,02,59,999.15
2013,06,24,03,00,999.05
2013,06,24,03,01,999.05
2013,06,24,03,02,999.05
2013,06,24,03,03,999.05
2013,06,24,03,04,999.05
2013,06,24,03,05,999.05
2013,06,24,03,06,999.05
2013,06,24,03,07,999.05
2013,06,24,03,08,999.05
2013,06,24,03,09,999.05
2013,06,24,03,10,999.05
2013,06,24,03,11,999.05
2013,06,24,03,12,999.05
2013,06,24,03,13,999.05
2013,06,24,03,14,999.05
2013,06,24,03,15,998.90
2013,06,24,03,16,998.88
2013,06,24,03,17,998.88
2013,06,24,03,18,998.88
2013,06,24,03,19,998.88
2013,06,24,03,20,998.88
2013,06,24,03,21,998.88
2013,06,24,03,22,998.88
2013,06,24,03,23,998.88
2013,06,24,03,24,998.88
2013,06,24,03,25,998.88
2013,06,24,03,26,998.88
2013,06,24,03,27,998.88
2013,06,24,03,28,998.88
2013,06,24,03,29,998.88
2013,06,24,03,30,998.82
2013,06,24,03,31,998.82
2013,06,24,03,32,998.82
2013,06,24,03,33,998.82
2013,06,24,03,34,998.82
2013,06,24,03,35,998.82
2013,06,24,03,36,998.82
2013,06,24,03,37,998.82
2013,06,24,03,38,998.82
2013,06,24,03,39,998.82
2013,06,24,03,40,998.82
2013,06,24,03,41,998.82
2013,06,24,03,42,998.82
2013,06,24,03,43,998.82
2013,06,24,03,44,998.82
2013,06,24,03,45,998.78
2013,06,24,03,46,998.78
2013,06,24,03,47,998.78
2013,06,24,03,48,998.78
2013,06,24,03,49,998.78
2013,06,24,03,50,998.78
2013,06,24,03,51,998.78
2013,06,24,03,52,998.78
2013,06,24,03,53,998.78
2013,06,24,03,54,998.78
2013,06,24,03,55,998.78
2013,06,24,03,56,998.78
2013,06,24,03,57,998.78
2013,06,24,03,58,998.78
2013,06,24,03,59,998.78
2013,06,24,04,00,998.82
2013,06,24,04,01,998.82
2013,06,24,04,02,998.82
2013,06,24,04,03,998.82
2013,06,24,04,04,998.82
2013,06,24,04,05,998.82
2013,06,24,04,06,998.82
2013,06,24,04,07,998.82
2013,06,24,04,08,998.82
2013,06,24,04,09,998.82
2013,06,24,04,10,998.82
2013,06,24,04,11,998.82
2013,06,24,04,12,998.82
2013,06,24,04,13,998.82
2013,06,24,04,14,998.82
2013,06,24,04,15,998.78
2013,06,24,04,16,998.78
2013,06,24,04,17,998.78
2013,06,24,04,18,998.78
2013,06,24,04,19,998.78
2013,06,24,04,20,998.78
2013,06,24,04,21,998.78
2013,06,24,04,22,998.78
2013,06,24,04,23,998.78
2013,06,24,04,24,998.78
2013,06,24,04,25,998.78
2013,06,24,04,26,998.78
2013,06,24,04,27,998.78
2013,06,24,04,28,998.78
2013,06,24,04,29,998.78
2013,06,24,04,30,998.69
2013,06,24,04,31,998.68
2013,06,24,04,32,998.68
2013,06,24,04,33,998.68
2013,06,24,04,34,998.68
2013,06,24,04,35,998.68
2013,06,24,04,36,998.68
2013,06,24,04,37,998.68
2013,06,24,04,38,998.68
2013,06,24,04,39,998.68
2013,06,24,04,40,998.68
2013,06,24,04,41,998.68
2013,06,24,04,42,998.68
2013,06,24,04,43,998.68
2013,06,24,04,44,998.68
2013,06,24,04,45,998.59
2013,06,24,04,46,998.58
2013,06,24,04,47,998.58
2013,06,24,04,48,998.58
2013,06,24,04,49,998.58
2013,06,24,04,50,998.58
2013,06,24,04,51,998.58
2013,06,24,04,52,998.58
2013,06,24,04,53,998.58
2013,06,24,04,54,998.58
2013,06,24,04,55,998.58
2013,06,24,04,56,998.58
2013,06,24,04,57,998.58
2013,06,24,04,58,998.58
2013,06,24,04,59,998.58
2013,06,24,05,00,998.45
2013,06,24,05,01,998.44
2013,06,24,05,02,998.44
2013,06,24,05,03,998.44
2013,06,24,05,04,998.44
2013,06,24,05,05,998.44
2013,06,24,05,06,998.44
2013,06,24,05,07,998.44
2013,06,24,05,08,998.44
2013,06,24,05,09,998.44
2013,06,24,05,10,998.44
2013,06,24,05,11,998.44
2013,06,24,05,12,998.44
2013,06,24,05,13,998.44
2013,06,24,05,14,998.44
2013,06,24,05,15,998.35
2013,06,24,05,16,998.34
2013,06,24,05,17,998.34
2013,06,24,05,18,998.34
2013,06,24,05,19,998.34
2013,06,24,05,20,998.34
2013,06,24,05,21,998.34
2013,06,24,05,22,998.34
2013,06,24,05,23,998.34
2013,06,24,05,24,998.34
2013,06,24,05,25,998.34
2013,06,24,05,26,998.34
2013,06,24,05,27,998.34
2013,06,24,05,28,998.34
2013,06,24,05,29,998.34
2013,06,24,05,30,998.31
2013,06,24,05,31,998.31
2013,06,24,05,32,998.31
2013,06,24,05,33,998.31
2013,06,24,05,34,998.31
2013,06,24,05,35,998.31
2013,06,24,05,36,998.31
2013,06,24,05,37,998.31
2013,06,24,05,38,998.31
2013,06,24,05,39,998.31
2013,06,24,05,40,998.31
2013,06,24,05,41,998.31
2013,06,24,05,42,998.31
2013,06,24,05,43,998.31
2013,06,24,05,44,998.31
2013,06,24,05,45,998.55
2013,06,24,05,46,998.58
2013,06,24,05,47,998.58
2013,06,24,05,48,998.58
2013,06,24,05,49,998.58
2013,06,24,05,50,998.58
2013,06,24,05,51,998.58
2013,06,24,05,52,998.58
2013,06,24,05,53,998.58
2013,06,24,05,54,998.58
2013,06,24,05,55,998.58
2013,06,24,05,56,998.58
2013,06,24,05,57,998.58
2013,06,24,05,58,998.58
2013,06,24,05,59,998.58
2013,06,24,06,00,998.67
2013,06,24,06,01,998.68
2013,06,24,06,02,998.68
2013,06,24,06,03,998.68
2013,06,24,06,04,998.68
2013,06,24,06,05,998.68
2013,06,24,06,06,998.68
2013,06,24,06,07,998.68
2013,06,24,06,08,998.68
2013,06,24,06,09,998.68
2013,06,24,06,10,998.68
2013,06,24,06,11,998.68
2013,06,24,06,12,998.68
2013,06,24,06,13,998.68
2013,06,24,06,14,998.68
2013,06,24,06,15,998.74
2013,06,24,06,16,998.75
2013,06,24,06,17,998.75
2013,06,24,06,18,998.75
2013,06,24,06,19,998.75
2013,06,24,06,20,998.75
2013,06,24,06,21,998.75
2013,06,24,06,22,998.75
2013,06,24,06,23,998.75
2013,06,24,06,24,998.75
2013,06,24,06,25,998.75
2013,06,24,06,26,998.75
2013,06,24,06,27,998.75
2013,06,24,06,28,998.75
2013,06,24,06,29,998.75
2013,06,24,06,30,999.15
2013,06,24,06,31,999.19
2013,06,24,06,32,999.19
2013,06,24,06,33,999.19
2013,06,24,06,34,999.19
2013,06,24,06,35,999.19
2013,06,24,06,36,999.19
2013,06,24,06,37,999.19
2013,06,24,06,38,999.19
2013,06,24,06,39,999.19
2013,06,24,06,40,999.19
2013,06,24,06,41,999.19
2013,06,24,06,42,999.19
2013,06,24,06,43,999.19
2013,06,24,06,44,999.19
2013,06,24,06,45,999.25
2013,06,24,06,46,999.26
2013,06,24,06,47,999.26
2013,06,24,06,48,999.26
2013,06,24,06,49,999.26
2013,06,24,06,50,999.26
2013,06,24,06,51,999.26
2013,06,24,06,52,999.26
2013,06,24,06,53,999.26
2013,06,24,06,54,999.26
2013,06,24,06,55,999.26
2013,06,24,06,56,999.26
2013,06,24,06,57,999.26
2013,06,24,06,58,999.26
2013,06,24,06,59,999.26
2013,06,24,07,00,999.26
2013,06,24,07,01,999.26
2013,06,24,07,02,999.26
2013,06,24,07,03,999.26
2013,06,24,07,04,999.26
2013,06,24,07,05,999.26
2013,06,24,07,06,999.26
2013,06,24,07,07,999.26
2013,06,24,07,08,999.26
2013,06,24,07,09,999.26
2013,06,24,07,10,999.26
2013,06,24,07,11,999.26
2013,06,24,07,12,999.26
2013,06,24,07,13,999.26
2013,06,24,07,14,999.26
2013,06,24,07,15,999.29
2013,06,24,07,16,999.29
2013,06,24,07,17,999.29
2013,06,24,07,18,999.29
2013,06,24,07,19,999.29
2013,06,24,07,20,999.29
2013,06,24,07,21,999.29
2013,06,24,07,22,999.29
2013,06,24,07,23,999.29
2013,06,24,07,24,999.29
2013,06,24,07,25,999.29
2013,06,24,07,26,999.29
2013,06,24,07,27,999.29
2013,06,24,07,28,999.29
2013,06,24,07,29,999.29
2013,06,24,07,30,999.51
2013,06,24,07,31,999.53
2013,06,24,07,32,999.53
2013,06,24,07,33,999.53
2013,06,24,07,34,999.53
2013,06,24,07,35,999.53
2013,06,24,07,36,999.53
2013,06,24,07,37,999.53
2013,06,24,07,38,999.53
2013,06,24,07,39,999.53
2013,06,24,07,40,999.53
2013,06,24,07,41,999.53
2013,06,24,07,42,999.53
2013,06,24,07,43,999.53
2013,06,24,07,44,999.53
2013,06,24,07,45,999.53
2013,06,24,07,46,999.53
2013,06,24,07,47,999.53
2013,06,24,07,48,999.53
2013,06,24,07,49,999.53
2013,06,24,07,50,999.53
2013,06,24,07,51,999.53
2013,06,24,07,52,999.53
2013,06,24,07,53,999.53
2013,06,24,07,54,999.53
2013,06,24,07,55,999.53
2013,06,24,07,56,999.53
2013,06,24,07,57,999.53
2013,06,24,07,58,999.53
2013,06,24,07,59,999.53
2013,06,24,08,00,999.40
2013,06,24,08,01,999.39
2013,06,24,08,02,999.39
2013,06,24,08,03,999.39
2013,06,24,08,04,999.39
2013,06,24,08,05,999.39
2013,06,24,08,06,999.39
2013,06,24,08,07,999.39
2013,06,24,08,08,999.39
2013,06,24,08,09,999.39
2013,06,24,08,10,999.39
2013,06,24,08,11,999.39
2013,06,24,08,12,999.39
2013,06,24,08,13,999.39
2013,06,24,08,14,999.39
2013,06,24,08,15,999.39
2013,06,24,08,16,999.39
2013,06,24,08,17,999.39
2013,06,24,08,18,999.39
2013,06,24,08,19,999.39
2013,06,24,08,20,999.39
2013,06,24,08,21,999.39
2013,06,24,08,22,999.39
2013,06,24,08,23,999.39
2013,06,24,08,24,999.39
2013,06,24,08,25,999.39
2013,06,24,08,26,999.39
2013,06,24,08,27,999.39
2013,06,24,08,28,999.39
2013,06,24,08,29,999.39
2013,06,24,08,30,999.67
2013,06,24,08,31,999.70
2013,06,24,08,32,999.70
2013,06,24,08,33,999.70
2013,06,24,08,34,999.70
2013,06,24,08,35,999.70
2013,06,24,08,36,999.70
2013,06,24,08,37,999.70
2013,06,24,08,38,999.70
2013,06,24,08,39,999.70
2013,06,24,08,40,999.70
2013,06,24,08,41,999.70
2013,06,24,08,42,999.70
2013,06,24,08,43,999.70
2013,06,24,08,44,999.70
2013,06,24,08,45,999.73
2013,06,24,08,46,999.73
2013,06,24,08,47,999.73
2013,06,24,08,48,999.73
2013,06,24,08,49,999.73
2013,06,24,08,50,999.73
2013,06,24,08,51,999.73
2013,06,24,08,52,999.73
2013,06,24,08,53,999.73
2013,06,24,08,54,999.73
2013,06,24,08,55,999.73
2013,06,24,08,56,999.73
2013,06,24,08,57,999.73
2013,06,24,08,58,999.73
2013,06,24,08,59,999.73
2013,06,24,09,00,999.79
2013,06,24,09,01,999.80
2013,06,24,09,02,999.80
2013,06,24,09,03,999.80
2013,06,24,09,04,999.80
2013,06,24,09,05,999.80
2013,06,24,09,06,999.80
2013,06,24,09,07,999.80
2013,06,24,09,08,999.80
2013,06,24,09,09,999.80
2013,06,24,09,10,999.80
2013,06,24,09,11,999.80
2013,06,24,09,12,999.80
2013,06,24,09,13,999.80
2013,06,24,09,14,999.80
2013,06,24,09,15,999.80
2013,06,24,09,16,999.80
2013,06,24,09,17,999.80
2013,06,24,09,18,999.80
2013,06,24,09,19,999.80
2013,06,24,09,20,999.80
2013,06,24,09,21,999.80
2013,06,24,09,22,999.80
2013,06,24,09,23,999.80
2013,06,24,09,24,999.80
2013,06,24,09,25,999.80
2013,06,24,09,26,999.80
2013,06,24,09,27,999.80
2013,06,24,09,28,999.80
2013,06,24,09,29,999.80
2013,06,24,09,30,999.83
2013,06,24,09,31,999.83
2013,06,24,09,32,999.83
2013,06,24,09,33,999.83
2013,06,24,09,34,999.83
2013,06,24,09,35,999.83
2013,06,24,09,36,999.83
2013,06,24,09,37,999.83
2013,06,24,09,38,999.83
2013,06,24,09,39,999.83
2013,06,24,09,40,999.83
2013,06,24,09,41,999.83
2013,06,24,09,42,999.83
2013,06,24,09,43,999.83
2013,06,24,09,44,999.83
2013,06,24,09,45,999.80
2013,06,24,09,46,999.80
2013,06,24,09,47,999.80
2013,06,24,09,48,999.80
2013,06,24,09,49,999.80
2013,06,24,09,50,999.80
2013,06,24,09,51,999.80
2013,06,24,09,52,999.80
2013,06,24,09,53,999.80
2013,06,24,09,54,999.80
2013,06,24,09,55,999.80
2013,06,24,09,56,999.80
2013,06,24,09,57,999.80
2013,06,24,09,58,999.80
2013,06,24,09,59,999.80
2013,06,24,10,00,999.80
2013,06,24,10,01,999.80
2013,06,24,10,02,999.80
2013,06,24,10,03,999.80
2013,06,24,10,04,999.80
2013,06,24,10,05,999.80
2013,06,24,10,06,999.80
2013,06,24,10,07,999.80
2013,06,24,10,08,999.80
2013,06,24,10,09,999.80
2013,06,24,10,10,999.80
2013,06,24,10,11,999.80
2013,06,24,10,12,999.80
2013,06,24,10,13,999.80
2013,06,24,10,14,999.80
2013,06,24,10,15,999.83
2013,06,24,10,16,999.83
2013,06,24,10,17,999.83
2013,06,24,10,18,999.83
2013,06,24,10,19,999.83
2013,06,24,10,20,999.83
2013,06,24,10,21,999.83
2013,06,24,10,22,999.83
2013,06,24,10,23,999.83
2013,06,24,10,24,999.83
2013,06,24,10,25,999.83
2013,06,24,10,26,999.83
2013,06,24,10,27,999.83
2013,06,24,10,28,999.83
2013,06,24,10,29,999.83
2013,06,24,10,30,999.83
2013,06,24,10,31,999.83
2013,06,24,10,32,999.83
2013,06,24,10,33,999.83
2013,06,24,10,34,999.83
2013,06,24,10,35,999.83
2013,06,24,10,36,999.83
2013,06,24,10,37,999.83
2013,06,24,10,38,999.83
2013,06,24,10,39,999.83
2013,06,24,10,40,999.83
2013,06,24,10,41,999.83
2013,06,24,10,42,999.83
2013,06,24,10,43,999.83
2013,06,24,10,44,999.83
2013,06,24,10,45,1000.07
2013,06,24,10,46,1000.10
2013,06,24,10,47,1000.10
2013,06,24,10,48,1000.10
2013,06,24,10,49,1000.10
2013,06,24,10,50,1000.10
2013,06,24,10,51,1000.10
2013,06,24,10,52,1000.10
2013,06,24,10,53,1000.10
2013,06,24,10,54,1000.10
2013,06,24,10,55,1000.10
2013,06,24,10,56,1000.10
2013,06,24,10,57,1000.10
2013,06,24,10,58,1000.10
2013,06,24,10,59,1000.10
2013,06,24,11,00,1000.17
2013,06,24,11,01,1000.17
2013,06,24,11,02,1000.17
2013,06,24,11,03,1000.17
2013,06,24,11,04,1000.17
2013,06,24,11,05,1000.17
2013,06,24,11,06,1000.17
2013,06,24,11,07,1000.17
2013,06,24,11,08,1000.17
2013,06,24,11,09,1000.17
2013,06,24,11,10,1000.17
2013,06,24,11,11,1000.17
2013,06,24,11,12,1000.17
2013,06,24,11,13,1000.17
2013,06,24,11,14,1000.17
2013,06,24,11,15,1000.35
2013,06,24,11,16,1000.37
2013,06,24,11,17,1000.37
2013,06,24,11,18,1000.37
2013,06,24,11,19,1000.37
2013,06,24,11,20,1000.37
2013,06,24,11,21,1000.37
2013,06,24,11,22,1000.37
2013,06,24,11,23,1000.37
2013,06,24,11,24,1000.37
2013,06,24,11,25,1000.37
2013,06,24,11,26,1000.37
2013,06,24,11,27,1000.37
2013,06,24,11,28,1000.37
2013,06,24,11,29,1000.37
2013,06,24,11,30,1000.83
2013,06,24,11,31,1000.88
2013,06,24,11,32,1000.88
2013,06,24,11,33,1000.88
2013,06,24,11,34,1000.88
2013,06,24,11,35,1000.88
2013,06,24,11,36,1000.88
2013,06,24,11,37,1000.88
2013,06,24,11,38,1000.88
2013,06,24,11,39,1000.88
2013,06,24,11,40,1000.88
2013,06,24,11,41,1000.88
2013,06,24,11,42,1000.88
2013,06,24,11,43,1000.88
2013,06,24,11,44,1000.88
2013,06,24,11,45,1000.88
2013,06,24,11,46,1000.88
2013,06,24,11,47,1000.88
2013,06,24,11,48,1000.88
2013,06,24,11,49,1000.88
2013,06,24,11,50,1000.88
2013,06,24,11,51,1000.88
2013,06,24,11,52,1000.88
2013,06,24,11,53,1000.88
2013,06,24,11,54,1000.88
2013,06,24,11,55,1000.88
2013,06,24,11,56,1000.88
2013,06,24,11,57,1000.88
2013,06,24,11,58,1000.88
2013,06,24,11,59,1000.88
2013,06,24,12,00,1001.03
2013,06,24,12,01,1001.05
2013,06,24,12,02,1001.05
2013,06,24,12,03,1001.05
2013,06,24,12,04,1001.05
2013,06,24,12,05,1001.05
2013,06,24,12,06,1001.05
2013,06,24,12,07,1001.05
2013,06,24,12,08,1001.05
2013,06,24,12,09,1001.05
2013,06,24,12,10,1001.05
2013,06,24,12,11,1001.05
2013,06,24,12,12,1001.05
2013,06,24,12,13,1001.05
2013,06,24,12,14,1001.05
2013,06,24,12,15,1001.29
2013,06,24,12,16,1001.32
2013,06,24,12,17,1001.32
2013,06,24,12,18,1001.32
2013,06,24,12,19,1001.32
2013,06,24,12,20,1001.32
2013,06,24,12,21,1001.32
2013,06,24,12,22,1001.32
2013,06,24,12,23,1001.32
2013,06,24,12,24,1001.32
2013,06,24,12,25,1001.32
2013,06,24,12,26,1001.32
2013,06,24,12,27,1001.32
2013,06,24,12,28,1001.32
2013,06,24,12,29,1001.32
2013,06,24,12,30,1001.56
2013,06,24,12,31,1001.59
2013,06,24,12,32,1001.59
2013,06,24,12,33,1001.59
2013,06,24,12,34,1001.59
2013,06,24,12,35,1001.59
2013,06,24,12,36,1001.59
2013,06,24,12,37,1001.59
2013,06,24,12,38,1001.59
2013,06,24,12,39,1001.59
2013,06,24,12,40,1001.59
2013,06,24,12,41,1001.59
2013,06,24,12,42,1001.59
2013,06,24,12,43,1001.59
2013,06,24,12,44,1001.59
2013,06,24,12,45,1001.83
2013,06,24,12,46,1001.86
2013,06,24,12,47,1001.86
2013,06,24,12,48,1001.86
2013,06,24,12,49,1001.86
2013,06,24,12,50,1001.86
2013,06,24,12,51,1001.86
2013,06,24,12,52,1001.86
2013,06,24,12,53,1001.86
2013,06,24,12,54,1001.86
2013,06,24,12,55,1001.86
2013,06,24,12,56,1001.86
2013,06,24,12,57,1001.86
2013,06,24,12,58,1001.86
2013,06,24,12,59,1001.86
2013,06,24,13,00,1001.90
2013,06,24,13,01,1001.90
2013,06,24,13,02,1001.90
2013,06,24,13,03,1001.90
2013,06,24,13,04,1001.90
2013,06,24,13,05,1001.90
2013,06,24,13,06,1001.90
2013,06,24,13,07,1001.90
2013,06,24,13,08,1001.90
2013,06,24,13,09,1001.90
2013,06,24,13,10,1001.90
2013,06,24,13,11,1001.90
2013,06,24,13,12,1001.90
2013,06,24,13,13,1001.90
2013,06,24,13,14,1001.90
2013,06,24,13,15,1001.93
2013,06,24,13,16,1001.93
2013,06,24,13,17,1001.93
2013,06,24,13,18,1001.93
2013,06,24,13,19,1001.93
2013,06,24,13,20,1001.93
2013,06,24,13,21,1001.93
2013,06,24,13,22,1001.93
2013,06,24,13,23,1001.93
2013,06,24,13,24,1001.93
2013,06,24,13,25,1001.93
2013,06,24,13,26,1001.93
2013,06,24,13,27,1001.93
2013,06,24,13,28,1001.93
2013,06,24,13,29,1001.93
2013,06,24,13,30,1002.07
2013,06,24,13,31,1002.07
2013,06,24,13,32,1002.07
2013,06,24,13,33,1002.07
2013,06,24,13,34,1002.07
2013,06,24,13,35,1002.07
2013,06,24,13,36,1002.07
2013,06,24,13,37,1002.07
2013,06,24,13,38,1002.07
2013,06,24,13,39,1002.07
2013,06,24,13,40,1002.07
2013,06,24,13,41,1002.07
2013,06,24,13,42,1002.07
2013,06,24,13,43,1002.07
2013,06,24,13,44,1002.07
2013,06,24,13,45,1002.24
2013,06,24,13,46,1002.24
2013,06,24,13,47,1002.24
2013,06,24,13,48,1002.24
2013,06,24,13,49,1002.24
2013,06,24,13,50,1002.24
2013,06,24,13,51,1002.24
2013,06,24,13,52,1002.24
2013,06,24,13,53,1002.24
2013,06,24,13,54,1002.24
2013,06,24,13,55,1002.24
2013,06,24,13,56,1002.24
2013,06,24,13,57,1002.24
2013,06,24,13,58,1002.24
2013,06,24,13,59,1002.24
2013,06,24,14,00,1002.34
2013,06,24,14,01,1002.34
2013,06,24,14,02,1002.34
2013,06,24,14,03,1002.34
2013,06,24,14,04,1002.34
2013,06,24,14,05,1002.34
2013,06,24,14,06,1002.34
2013,06,24,14,07,1002.34
2013,06,24,14,08,1002.34
2013,06,24,14,09,1002.34
2013,06,24,14,10,1002.34
2013,06,24,14,11,1002.34
2013,06,24,14,12,1002.34
2013,06,24,14,13,1002.34
2013,06,24,14,14,1002.34
2013,06,24,14,15,1002.41
2013,06,24,14,16,1002.41
2013,06,24,14,17,1002.41
2013,06,24,14,18,1002.41
2013,06,24,14,19,1002.41
2013,06,24,14,20,1002.41
2013,06,24,14,21,1002.41
2013,06,24,14,22,1002.41
2013,06,24,14,23,1002.41
2013,06,24,14,24,1002.41
2013,06,24,14,25,1002.41
2013,06,24,14,26,1002.41
2013,06,24,14,27,1002.41
2013,06,24,14,28,1002.41
2013,06,24,14,29,1002.41
2013,06,24,14,30,1002.47
2013,06,24,14,31,1002.47
2013,06,24,14,32,1002.47
2013,06,24,14,33,1002.47
2013,06,24,14,34,1002.47
2013,06,24,14,35,1002.47
2013,06,24,14,36,1002.47
2013,06,24,14,37,1002.47
2013,06,24,14,38,1002.47
2013,06,24,14,39,1002.47
2013,06,24,14,40,1002.47
2013,06,24,14,41,1002.47
2013,06,24,14,42,1002.47
2013,06,24,14,43,1002.47
2013,06,24,14,44,1002.47
2013,06,24,14,45,1002.78
2013,06,24,14,46,1002.78
2013,06,24,14,47,1002.78
2013,06,24,14,48,1002.78
2013,06,24,14,49,1002.78
2013,06,24,14,50,1002.78
2013,06,24,14,51,1002.78
2013,06,24,14,52,1002.78
2013,06,24,14,53,1002.78
2013,06,24,14,54,1002.78
2013,06,24,14,55,1002.78
2013,06,24,14,56,1002.78
2013,06,24,14,57,1002.78
2013,06,24,14,58,1002.78
2013,06,24,14,59,1002.78
2013,06,24,15,00,1002.98
2013,06,24,15,01,1002.98
2013,06,24,15,02,1002.98
2013,06,24,15,03,1002.98
2013,06,24,15,04,1002.98
2013,06,24,15,05,1002.98
2013,06,24,15,06,1002.98
2013,06,24,15,07,1002.98
2013,06,24,15,08,1002.98
2013,06,24,15,09,1002.98
2013,06,24,15,10,1002.98
2013,06,24,15,11,1002.98
2013,06,24,15,12,1002.98
2013,06,24,15,13,1002.98
2013,06,24,15,14,1002.98
2013,06,24,15,15,1002.95
2013,06,24,15,16,1002.95
2013,06,24,15,17,1002.95
2013,06,24,15,18,1002.95
2013,06,24,15,19,1002.95
2013,06,24,15,20,1002.95
2013,06,24,15,21,1002.95
2013,06,24,15,22,1002.95
2013,06,24,15,23,1002.95
2013,06,24,15,24,1002.95
2013,06,24,15,25,1002.95
2013,06,24,15,26,1002.95
2013,06,24,15,27,1002.95
2013,06,24,15,28,1002.95
2013,06,24,15,29,1002.95
2013,06,24,15,30,1002.91
2013,06,24,15,31,1002.91
2013,06,24,15,32,1002.91
2013,06,24,15,33,1002.91
2013,06,24,15,34,1002.91
2013,06,24,15,35,1002.91
2013,06,24,15,36,1002.91
2013,06,24,15,37,1002.91
2013,06,24,15,38,1002.91
2013,06,24,15,39,1002.91
2013,06,24,15,40,1002.91
2013,06,24,15,41,1002.91
2013,06,24,15,42,1002.91
2013,06,24,15,43,1002.91
2013,06,24,15,44,1002.91
2013,06,24,15,45,1002.91
2013,06,24,15,46,1002.91
2013,06,24,15,47,1002.91
2013,06,24,15,48,1002.91
2013,06,24,15,49,1002.91
2013,06,24,15,50,1002.91
2013,06,24,15,51,1002.91
2013,06,24,15,52,1002.91
2013,06,24,15,53,1002.91
2013,06,24,15,54,1002.91
2013,06,24,15,55,1002.91
2013,06,24,15,56,1002.91
2013,06,24,15,57,1002.91
2013,06,24,15,58,1002.91
2013,06,24,15,59,1002.91
2013,06,24,16,00,1002.95
2013,06,24,16,01,1002.95
2013,06,24,16,02,1002.95
2013,06,24,16,03,1002.95
2013,06,24,16,04,1002.95
2013,06,24,16,05,1002.95
2013,06,24,16,06,1002.95
2013,06,24,16,07,1002.95
2013,06,24,16,08,1002.95
2013,06,24,16,09,1002.95
2013,06,24,16,10,1002.95
2013,06,24,16,11,1002.95
2013,06,24,16,12,1002.95
2013,06,24,16,13,1002.95
2013,06,24,16,14,1002.95
2013,06,24,16,15,1002.88
2013,06,24,16,16,1002.88
2013,06,24,16,17,1002.88
2013,06,24,16,18,1002.88
2013,06,24,16,19,1002.88
2013,06,24,16,20,1002.88